Location: Unspecified
(0.0000°N, 0.0000°E)
Time: 21:31:44
(UTC+00:00)

BEESAT - Pass Details

Date: 01 June 2019
Orbit: 700 x 709 km, 98.6° (Epoch: 19 June)

Event Time Altitude Azimuth Distance (km) Brightness Sun altitude
Rises 05:06:24 0° 185° (S) 3,097 ? -11.9°
Reaches altitude 10° 05:08:51 10° 194° (SSW) 2,178 ? -11.3°
Maximum altitude 05:13:05 32° 257° (WSW) 1,194 ? -10.4°
Drops below altitude 10° 05:17:20 10° 320° (NW) 2,173 ? -9.4°
Sets 05:19:47 0° 330° (NNW) 3,089 ? -8.8°
